Location: Nairn
(57.5833°N, 3.8667°W)
Time: 00:15:18
(UTC+00:00)

Cosmos 1758 - Pass Details

Date: 07 August 2020
Orbit: 540 x 562 km, 82.5° (Epoch: 19 September)

Event Time Altitude Azimuth Distance (km) Brightness Sun altitude
Exits shadow 03:12:46 - 181° (S) 2,352 6.1 -8.0°
Reaches altitude 10° 03:14:02 10° 180° (S) 1,838 5.6 -7.9°
Maximum altitude 03:18:02 65° 99° (E) 615 3.7 -7.6°
Drops below altitude 10° 03:22:03 10° 18° (NNE) 1,839 7.2 -7.2°
Sets 03:24:13 0° 15° (NNE) 2,734 8.1 -7.0°
